When you browse on this site, cookies collect data to enhance your experience and personalize the content and advertising you see.
Visit our Privacy Policy to learn more. By continuing to use the site, you agree to this use of cookies and data.
  • In Lithuania
  • List of Countries
  • For 7 days
  • Water Temperature
  • Satellite Maps
  • Weather Map
  • Weather Widgets
  • user-avatar
    Login

    Hourly Weather Malanje

    Today, 21 February, Thursday

    Time Temperature Precipitation Wind Pressure Humidity
    00:00 +21°C° 0 mm 1 mps 665 mmHg 92%
    01:00 +21°C° 0 mm 1 mps 665 mmHg 92%
    02:00 +21°C° 0.9 mm 1 mps 665 mmHg 94%
    03:00 +21°C° 0.9 mm 1 mps 665 mmHg 96%
    04:00 +21°C° 0.9 mm 1 mps 665 mmHg 97%
    05:00 +21°C° 0.2 mm 1 mps 665 mmHg 97%
    06:00 +21°C° 0.2 mm 1 mps 666 mmHg 96%
    07:00 +19°C° 0.2 mm 0 mps 666 mmHg 96%
    08:00 +20°C° 0.7 mm 0 mps 667 mmHg 93%
    09:00 +21°C° 0.7 mm 0 mps 667 mmHg 90%
    10:00 +22°C° 0.7 mm 0 mps 668 mmHg 87%
    11:00 +22°C° 0.9 mm 0 mps 667 mmHg 88%
    12:00 +22°C° 0.9 mm 0 mps 667 mmHg 88%
    13:00 +24°C° 0.9 mm 1 mps 666 mmHg 89%
    14:00 +24°C° 0.6 mm 1 mps 666 mmHg 87%
    15:00 +25°C° 0.6 mm 1 mps 665 mmHg 85%
    16:00 +25°C° 0.6 mm 1 mps 665 mmHg 83%
    17:00 +24°C° 1.1 mm 1 mps 665 mmHg 86%
    18:00 +23°C° 1.1 mm 1 mps 665 mmHg 90%
    19:00 +21°C° 1.1 mm 1 mps 665 mmHg 94%
    20:00 +21°C° 0.3 mm 1 mps 666 mmHg 95%
    21:00 +21°C° 0.3 mm 1 mps 666 mmHg 96%
    22:00 +20°C° 0.3 mm 1 mps 667 mmHg 97%
    23:00 +20°C° 0.3 mm 1 mps 667 mmHg 97%

    Tomorrow, 22 February, Friday

    Time Temperature Precipitation Wind Pressure Humidity
    00:00 +20°C° 0.3 mm 1 mps 667 mmHg 98%
    01:00 +19°C° 0.3 mm 2 mps 667 mmHg 99%
    02:00 +19°C° 0.8 mm 2 mps 666 mmHg 98%
    03:00 +19°C° 0.8 mm 2 mps 666 mmHg 98%
    04:00 +19°C° 0.8 mm 2 mps 666 mmHg 98%
    05:00 +19°C° 0.4 mm 2 mps 666 mmHg 98%
    06:00 +19°C° 0.4 mm 2 mps 666 mmHg 98%
    07:00 +19°C° 0.4 mm 2 mps 667 mmHg 98%
    08:00 +20°C° 0.1 mm 2 mps 667 mmHg 96%
    09:00 +20°C° 0.1 mm 2 mps 668 mmHg 94%
    10:00 +21°C° 0.1 mm 2 mps 668 mmHg 92%
    11:00 +21°C° 0.4 mm 2 mps 667 mmHg 92%
    12:00 +23°C° 0.4 mm 2 mps 667 mmHg 92%
    13:00 +23°C° 0.4 mm 2 mps 667 mmHg 91%
    14:00 +23°C° 0.5 mm 2 mps 666 mmHg 92%
    15:00 +21°C° 0.5 mm 2 mps 666 mmHg 93%
    16:00 +21°C° 0.5 mm 2 mps 665 mmHg 93%
    17:00 +20°C° 0.2 mm 2 mps 665 mmHg 95%
    18:00 +20°C° 0.2 mm 2 mps 666 mmHg 96%
    19:00 +19°C° 0.2 mm 2 mps 666 mmHg 97%
    20:00 +19°C° 0.1 mm 2 mps 666 mmHg 98%
    21:00 +20°C° 0.1 mm 1 mps 666 mmHg 98%
    22:00 +19°C° 0.1 mm 1 mps 667 mmHg 98%
    23:00 +19°C° 0.1 mm 1 mps 666 mmHg 98%

    Day after tomorrow, 23 February, Saturday

    Time Temperature Precipitation Wind Pressure Humidity
    00:00 +19°C° 0.1 mm 1 mps 666 mmHg 97%
    01:00 +19°C° 0.1 mm 1 mps 665 mmHg 97%
    02:00 +19°C° 0.1 mm 1 mps 665 mmHg 97%
    03:00 +19°C° 0.1 mm 1 mps 664 mmHg 96%
    04:00 +19°C° 0.1 mm 1 mps 664 mmHg 96%
    05:00 +19°C° 0.3 mm 1 mps 664 mmHg 96%
    06:00 +17°C° 0.3 mm 0 mps 665 mmHg 96%
    07:00 +17°C° 0.3 mm 0 mps 665 mmHg 96%
    08:00 +18°C° 0 mm 0 mps 666 mmHg 94%
    09:00 +20°C° 0 mm 1 mps 666 mmHg 93%
    10:00 +21°C° 0 mm 1 mps 666 mmHg 91%
    11:00 +23°C° 0 mm 1 mps 666 mmHg 82%
    12:00 +26°C° 0 mm 1 mps 666 mmHg 72%
    13:00 +28°C° 0 mm 1 mps 666 mmHg 62%
    14:00 +28°C° 0.4 mm 1 mps 665 mmHg 67%
    15:00 +27°C° 0.4 mm 1 mps 664 mmHg 72%
    16:00 +26°C° 0.4 mm 2 mps 663 mmHg 77%
    17:00 +24°C° 0.6 mm 1 mps 664 mmHg 82%
    18:00 +23°C° 0.6 mm 1 mps 664 mmHg 87%
    19:00 +21°C° 0.6 mm 1 mps 664 mmHg 92%
    20:00 +21°C° 0.1 mm 1 mps 664 mmHg 92%
    21:00 +18°C° 0.1 mm 0 mps 665 mmHg 93%
    22:00 +18°C° 0.1 mm 0 mps 665 mmHg 94%
    23:00 +18°C° 0 mm 0 mps 665 mmHg 94%

    24 February, Sunday

    Time Temperature Precipitation Wind Pressure Humidity
    00:00 +18°C° 0 mm 0 mps 664 mmHg 95%
    01:00 +17°C° 0 mm 0 mps 664 mmHg 95%
    02:00 +17°C° 0 mm 0 mps 663 mmHg 96%
    03:00 +17°C° 0 mm 0 mps 663 mmHg 96%
    04:00 +17°C° 0 mm 0 mps 663 mmHg 96%
    05:00 +17°C° 0 mm 0 mps 663 mmHg 95%
    06:00 +18°C° 0 mm 0 mps 664 mmHg 94%
    07:00 +18°C° 0 mm 0 mps 664 mmHg 94%
    08:00 +20°C° 0 mm 0 mps 665 mmHg 87%
    09:00 +22°C° 0 mm 0 mps 666 mmHg 81%
    10:00 +24°C° 0 mm 0 mps 666 mmHg 75%
    11:00 +27°C° 0 mm 1 mps 666 mmHg 68%
    12:00 +28°C° 0 mm 1 mps 665 mmHg 60%
    13:00 +29°C° 0 mm 2 mps 665 mmHg 53%
    14:00 +29°C° 0.2 mm 1 mps 664 mmHg 60%
    15:00 +28°C° 0.2 mm 1 mps 663 mmHg 66%
    16:00 +27°C° 0.2 mm 1 mps 663 mmHg 73%
    17:00 +26°C° 0.5 mm 1 mps 663 mmHg 77%
    18:00 +22°C° 0.5 mm 0 mps 663 mmHg 82%
    19:00 +20°C° 0.5 mm 0 mps 663 mmHg 87%
    20:00 +19°C° 0.1 mm 0 mps 664 mmHg 88%
    21:00 +19°C° 0.1 mm 0 mps 664 mmHg 88%
    22:00 +19°C° 0.1 mm 0 mps 664 mmHg 89%
    23:00 +18°C° 0 mm 0 mps 664 mmHg 90%

    25 February, Monday

    Time Temperature Precipitation Wind Pressure Humidity
    00:00 +18°C° 0 mm 0 mps 664 mmHg 91%
    01:00 +20°C° 0 mm 1 mps 663 mmHg 93%
    02:00 +20°C° 0.8 mm 1 mps 663 mmHg 94%
    03:00 +19°C° 0.8 mm 1 mps 663 mmHg 95%
    04:00 +19°C° 0.8 mm 1 mps 663 mmHg 97%
    05:00 +17°C° 0.5 mm 0 mps 663 mmHg 96%
    06:00 +18°C° 0.5 mm 0 mps 664 mmHg 95%
    07:00 +18°C° 0.5 mm 0 mps 664 mmHg 94%
    08:00 +21°C° 0 mm 0 mps 665 mmHg 86%
    09:00 +23°C° 0 mm 0 mps 665 mmHg 78%
    10:00 +28°C° 0 mm 1 mps 666 mmHg 69%
    11:00 +28°C° 0.1 mm 1 mps 666 mmHg 66%
    12:00 +29°C° 0.1 mm 1 mps 665 mmHg 62%
    13:00 +30°C° 0.1 mm 1 mps 664 mmHg 58%
    14:00 +29°C° 1 mm 1 mps 664 mmHg 64%
    15:00 +29°C° 1 mm 1 mps 663 mmHg 69%
    16:00 +28°C° 1 mm 1 mps 663 mmHg 74%
    17:00 +26°C° 1.1 mm 1 mps 663 mmHg 79%
    18:00 +24°C° 1.1 mm 1 mps 663 mmHg 84%
    19:00 +22°C° 1.1 mm 1 mps 663 mmHg 89%
    20:00 +22°C° 0.9 mm 1 mps 664 mmHg 91%
    21:00 +21°C° 0.9 mm 1 mps 664 mmHg 92%
    22:00 +21°C° 0.9 mm 1 mps 665 mmHg 93%
    23:00 +21°C° 0.1 mm 1 mps 664 mmHg 94%

    26 February, Tuesday

    Time Temperature Precipitation Wind Pressure Humidity
    00:00 +21°C° 0.1 mm 1 mps 664 mmHg 95%
    01:00 +21°C° 0.1 mm 1 mps 664 mmHg 96%
    02:00 +19°C° 0.2 mm 2 mps 664 mmHg 97%
    03:00 +19°C° 0.2 mm 2 mps 664 mmHg 98%
    04:00 +19°C° 0.2 mm 2 mps 664 mmHg 99%
    05:00 +20°C° 0 mm 2 mps 664 mmHg 98%
    06:00 +20°C° 0 mm 2 mps 665 mmHg 98%
    07:00 +20°C° 0 mm 2 mps 665 mmHg 97%
    08:00 +21°C° 0 mm 2 mps 665 mmHg 94%
    09:00 +21°C° 0 mm 2 mps 665 mmHg 91%
    10:00 +23°C° 0 mm 2 mps 665 mmHg 88%
    11:00 +25°C° 0 mm 2 mps 665 mmHg 79%
    12:00 +26°C° 0 mm 2 mps 665 mmHg 71%
    13:00 +28°C° 0 mm 2 mps 664 mmHg 63%
    14:00 +28°C° 0 mm 2 mps 664 mmHg 64%
    15:00 +28°C° 0 mm 2 mps 663 mmHg 65%
    16:00 +28°C° 0 mm 2 mps 663 mmHg 66%
    17:00 +26°C° 0 mm 2 mps 663 mmHg 72%
    18:00 +25°C° 0 mm 2 mps 663 mmHg 77%
    19:00 +23°C° 0 mm 1 mps 664 mmHg 83%
    20:00 +22°C° 0 mm 1 mps 664 mmHg 86%
    21:00 +22°C° 0 mm 1 mps 664 mmHg 89%
    22:00 +21°C° 0 mm 1 mps 664 mmHg 92%
    23:00 +21°C° 0.1 mm 1 mps 664 mmHg 94%
    Show more